Tracking 20621 objects as of 30-Mar-2020
HD Live streaming from Space Station
objects crossing your sky now

COSMOS 482 DESCENT CRAFT

Track COSMOS 482 DESCENT CRAFT now!
10-day predictions
COSMOS 482 DESCENT CRAFT is classified as:


NORAD ID: 6073
Int'l Code: 1972-023E
Perigee: 207.4 km
Apogee: 2,289.7 km
Inclination: 52.1 °
Period: 110.3 minutes
Semi major axis: 7619 km
RCS: 0.7153 m2 (medium)
Launch date: March 31, 1972
Source: Commonwealth of Independent States (former USSR) (CIS)
Launch site: TYURATAM MISSILE AND SPACE COMPLEX (TTMTR)
aabbcc
Your satellite tracking list
Your tracking list is empty




NASA's NSSDC Master Catalog

Two Line Element Set (TLE):
1  6073U 72023E   20089.85516576 +.00015866 +54682-5 +68180-4 0  9995
2  6073 052.0545 332.0340 1366381 213.6286 137.0156 13.05299962491801
Source of the keplerian elements: AFSPC